Weather History for Alpine, TX

Change the Weather History Date:

Tuesday, July 16, 2013

  Actual Average (KMRF) Record (KMRF)
Temperature  
Mean Temperature 61 °F -  
Max Temperature 64 °F 85 °F 95 °F (2001)
Min Temperature 59 °F 59 °F 57 °F (1997)
Degree Days  
Heating Degree Days 4    
Growing Degree Days 11 (Base 50)    
Moisture  
Dew Point 59 °F    
Average Humidity 93    
Maximum Humidity 97    
Minimum Humidity 84    
Precipitation  
Precipitation 0.06 in - - ()
Sea Level Pressure  
Sea Level Pressure 30.26 in    
Wind  
Wind Speed 4 mph (NNE)    
Max Wind Speed 12 mph    
Max Gust Speed 16 mph    
Visibility 8 miles    
Events      
Averages and records for this station are not official NWS values.
T = Trace of Precipitation, MM = Missing Value Source: NWS Daily Summary

Daily Weather History Graph

Daily Weather History Graph

Search for Another Location

Airport:

Trip Planner

Search our weather history database for the weather conditions in past years. The results will help you decide how hot, cold, wet, or windy it might be!

Date:

Astronomy

Jul. 16, 2013 Rise Set
Actual Time 7:03 AM CDT 8:57 PM CDT
Civil Twilight 6:36 AM CDT 9:24 PM CDT
Nautical Twilight 6:04 AM CDT 9:57 PM CDT
Astronomical Twilight 5:29 AM CDT 10:31 PM CDT
Moon 2:51 PM CDT (7/16) 1:22 AM CDT (7/16)
Length of Visible Light 14h 47m
Length of Day
13h 53m
First Quarter, 56% of the Moon is Illuminated
Jul 16
First Quarter
Jul 22
Full
Jul 29
Last Quarter
Aug 6
New
Aug 14
First Quarter

Hourly Weather History & Observations

Time (CDT) Temp. Dew Point Humidity Pressure Visibility Wind Dir Wind Speed Gust Speed Precip Events Conditions
12:15 AM 59.2 °F 58.5 °F 97% 30.24 in 10.0 mi Calm Calm - N/A   Overcast
12:35 AM 59.4 °F 58.5 °F 97% 30.24 in 10.0 mi North 4.6 mph - N/A   Overcast
12:55 AM 59.4 °F 58.3 °F 96% 30.24 in 10.0 mi North 4.6 mph - N/A   Overcast
1:15 AM 59.5 °F 58.3 °F 96% 30.24 in 10.0 mi Calm Calm - N/A   Overcast
1:35 AM 59.9 °F 58.1 °F 94% 30.23 in 10.0 mi Calm Calm - N/A   Overcast
1:55 AM 60.1 °F 58.1 °F 93% 30.23 in 10.0 mi Calm Calm - N/A   Overcast
2:15 AM 60.3 °F 58.1 °F 93% 30.23 in 10.0 mi North 4.6 mph - N/A   Overcast
2:35 AM 60.1 °F 57.7 °F 92% 30.23 in 10.0 mi NNE 3.5 mph - N/A   Overcast
2:55 AM 60.3 °F 57.7 °F 91% 30.24 in 10.0 mi North 3.5 mph - N/A   Overcast
3:15 AM 59.9 °F 57.7 °F 93% 30.23 in 10.0 mi North 5.8 mph - N/A   Overcast
3:35 AM 59.9 °F 58.1 °F 94% 30.23 in 10.0 mi North 3.5 mph - N/A   Overcast
3:55 AM 59.7 °F 58.1 °F 94% 30.22 in 10.0 mi North 5.8 mph - N/A   Overcast
4:15 AM 59.5 °F 58.1 °F 95% 30.21 in 10.0 mi North 4.6 mph - N/A   Overcast
4:35 AM 59.9 °F 58.1 °F 94% 30.21 in 10.0 mi NE 4.6 mph - N/A   Overcast
4:55 AM 60.1 °F 58.3 °F 94% 30.21 in 10.0 mi Calm Calm - N/A   Overcast
5:15 AM 59.9 °F 58.1 °F 94% 30.21 in 10.0 mi NE 3.5 mph - N/A   Overcast
5:35 AM 59.9 °F 57.9 °F 93% 30.20 in 10.0 mi NE 4.6 mph - N/A   Overcast
5:55 AM 59.9 °F 58.1 °F 94% 30.20 in 10.0 mi NNE 4.6 mph - N/A   Overcast
6:15 AM 59.7 °F 57.9 °F 94% 30.21 in 10.0 mi NNE 3.5 mph - N/A   Overcast
6:35 AM 59.9 °F 58.1 °F 94% 30.22 in 10.0 mi NE 4.6 mph - N/A   Overcast
6:55 AM 59.9 °F 58.1 °F 94% 30.23 in 10.0 mi NE 5.8 mph - N/A   Overcast
7:15 AM 59.9 °F 58.1 °F 94% 30.23 in 10.0 mi NNE 4.6 mph - N/A   Overcast
7:35 AM 59.7 °F 58.1 °F 94% 30.23 in 10.0 mi NNE 5.8 mph - N/A   Overcast
7:55 AM 59.9 °F 58.3 °F 94% 30.24 in 7.0 mi Calm Calm - N/A   Overcast
8:15 AM 59.9 °F 58.5 °F 95% 30.24 in 7.0 mi NNE 5.8 mph - N/A   Overcast
8:35 AM 59.9 °F 58.3 °F 94% 30.25 in 10.0 mi ENE 3.5 mph - N/A   Overcast
8:55 AM 60.3 °F 58.5 °F 94% 30.26 in 10.0 mi NNE 5.8 mph - N/A   Overcast
9:15 AM 60.4 °F 58.6 °F 94% 30.26 in 7.0 mi NE 6.9 mph - N/A   Overcast
9:35 AM 60.4 °F 58.6 °F 94% 30.26 in 10.0 mi NNE 5.8 mph - N/A   Overcast
9:55 AM 60.3 °F 59.2 °F 96% 30.27 in 4.0 mi ENE 4.6 mph - N/A   Overcast
10:15 AM 60.6 °F 59.4 °F 96% 30.27 in 7.0 mi NE 8.1 mph - N/A   Overcast
10:55 AM 60.8 °F 59.5 °F 96% 30.27 in 7.0 mi NE 8.1 mph - N/A   Overcast
11:15 AM 60.8 °F 59.5 °F 96% 30.28 in 4.0 mi NE 9.2 mph - N/A   Overcast
11:35 AM 60.4 °F 59.4 °F 96% 30.28 in 5.0 mi NE 9.2 mph - N/A   Overcast
11:55 AM 60.6 °F 59.7 °F 97% 30.28 in 3.0 mi NE 10.4 mph 16.1 mph N/A   Overcast
12:15 PM 60.8 °F 59.7 °F 96% 30.29 in 5.0 mi NE 11.5 mph - N/A   Overcast
12:35 PM 61.5 °F 59.9 °F 94% 30.29 in 7.0 mi NE 11.5 mph - N/A   Overcast
12:55 PM 61.9 °F 59.9 °F 93% 30.29 in 5.0 mi NE 11.5 mph - N/A   Overcast
1:15 PM 62.2 °F 59.9 °F 92% 30.28 in 10.0 mi NE 10.4 mph - N/A   Overcast
1:35 PM 61.9 °F 60.1 °F 94% 30.28 in 5.0 mi ENE 10.4 mph - N/A   Overcast
1:55 PM 63.1 °F 59.2 °F 87% 30.28 in 10.0 mi NE 11.5 mph - N/A   Overcast
2:15 PM 63.9 °F 58.8 °F 84% 30.28 in 10.0 mi NE 9.2 mph - N/A   Overcast
2:35 PM 63.1 °F 59.5 °F 88% 30.28 in 10.0 mi NE 10.4 mph - N/A   Overcast
4:15 PM 61.9 °F 59.2 °F 91% 30.27 in 10.0 mi NE 8.1 mph - N/A   Overcast
4:35 PM 62.4 °F 59.0 °F 89% 30.27 in 10.0 mi NNE 9.2 mph - N/A   Overcast
4:55 PM 62.6 °F 58.8 °F 87% 30.27 in 10.0 mi NE 9.2 mph - N/A   Overcast
5:15 PM 63.1 °F 59.0 °F 86% 30.26 in 10.0 mi North 10.4 mph - N/A   Overcast
5:35 PM 62.8 °F 59.0 °F 87% 30.26 in 10.0 mi NNE 9.2 mph - N/A   Overcast
5:55 PM 62.8 °F 59.4 °F 89% 30.26 in 10.0 mi NE 10.4 mph - N/A   Overcast
6:15 PM 62.6 °F 59.9 °F 91% 30.26 in 7.0 mi NE 8.1 mph - N/A   Overcast
6:35 PM 62.8 °F 60.4 °F 92% 30.26 in 7.0 mi North 8.1 mph - N/A   Overcast
6:55 PM 62.8 °F 59.5 °F 89% 30.26 in 10.0 mi NNE 4.6 mph - N/A   Overcast
7:15 PM 63.0 °F 59.5 °F 89% 30.25 in 10.0 mi NNE 5.8 mph - N/A   Overcast
7:35 PM 62.6 °F 59.9 °F 91% 30.25 in 7.0 mi NE 4.6 mph - 0.01 in   Overcast
7:55 PM 63.0 °F 60.4 °F 91% 30.26 in 7.0 mi ENE 4.6 mph - 0.01 in   Mostly Cloudy
8:15 PM 62.8 °F 59.9 °F 90% 30.27 in 7.0 mi NE 5.8 mph - 0.01 in   Mostly Cloudy
8:35 PM 62.6 °F 59.9 °F 91% 30.27 in 7.0 mi North 3.5 mph - 0.02 in   Mostly Cloudy
8:55 PM 62.4 °F 60.1 °F 92% 30.28 in 7.0 mi North 3.5 mph - 0.02 in   Mostly Cloudy
9:15 PM 62.1 °F 60.1 °F 93% 30.28 in 7.0 mi North 3.5 mph - N/A   Mostly Cloudy
9:35 PM 62.6 °F 60.6 °F 93% 30.28 in 7.0 mi NNE 3.5 mph - 0.01 in   Mostly Cloudy
9:55 PM 61.5 °F 59.9 °F 94% 30.29 in 4.0 mi North 6.9 mph - 0.02 in   Overcast
10:15 PM 61.7 °F 59.9 °F 94% 30.30 in 7.0 mi North 3.5 mph - N/A   Overcast
10:35 PM 61.9 °F 60.4 °F 95% 30.31 in 7.0 mi Calm Calm - N/A   Overcast
10:55 PM 61.9 °F 59.9 °F 93% 30.31 in 10.0 mi Calm Calm - N/A   Overcast
11:15 PM 62.1 °F 60.1 °F 93% 30.32 in 7.0 mi Calm Calm - 0.01 in   Overcast
11:35 PM 62.1 °F 59.9 °F 93% 30.31 in 10.0 mi Calm Calm - 0.01 in   Overcast
11:55 PM 62.4 °F 60.6 °F 94% 30.32 in 7.0 mi Calm Calm - 0.01 in   Overcast